Preview of NWS' New Version of Forecast
This preview is not operational and should not be used for support decisions.

Regional Weather Roundup (RWR)

Issued by National Weather Service (NWS)

                            
000
ASUS45 KCYS 181210
RWRWY 

WYOMING REGIONAL WEATHER ROUNDUP
NATIONAL WEATHER SERVICE CHEYENNE WY
600 AM MDT THU APR 18 2019

NOTE:  "FAIR" INDICATES FEW OR NO CLOUDS BELOW 12,000 FEET
WITH NO SIGNIFICANT WEATHER AND/OR OBSTRUCTIONS TO VISIBILITY.

WYZ001-181300-
...YELLOWSTONE NATIONAL PARK...
  
CITY           SKY/WX    TMP DP  RH WIND       PRES   REMARKS
LK YELLOWSTONE NOT AVBL                                               
W YELLOWSTONE  NOT AVBL                                               

$$
WYZ002>013-054>058-071-098>099-181300-
...NORTHERN WYOMING...
  
CITY           SKY/WX    TMP DP  RH WIND       PRES   REMARKS
JACKSON        CLEAR     31  27  85 N10       30.31R WCI  22          
CODY           CLEAR     29  22  75 S7        30.23R WCI  22          
GREYBULL       CLEAR     41  25  53 W10       30.19R                  
6HR MIN TEMP:  41; 6HR MAX TEMP:  49;                                

WORLAND        PTCLDY    41  24  51 NW9       30.20R                  
6HR MIN TEMP:  35; 6HR MAX TEMP:  43;                                

SHERIDAN       CLOUDY    38  29  70 NW6       30.15F WCI  33          
6HR MIN TEMP:  37; 6HR MAX TEMP:  48;                                

BUFFALO        MOCLDY    38  27  64 NW13      30.15R WCI  30          
6HR MIN TEMP:  37; 6HR MAX TEMP:  44; 6HR PCP: TRACE;                

GILLETTE       PTCLDY    38  32  79 NW16      30.12R WCI  29          
6HR MIN TEMP:  36; 6HR MAX TEMP:  41; 6HR PCP: TRACE;                

HULETT         FAIR      41  32  70 W13G24    30.08S                  
NEWCASTLE      CLOUDY    34  32  93 N6        30.11R WCI  29          

$$
WYZ014>020-022>026-101>103-181300-
...CENTRAL WYOMING...
  
CITY           SKY/WX    TMP DP  RH WIND       PRES   REMARKS
BIG PINEY      CLEAR     35  24  64 N14       30.27R WCI  26          
6HR MIN TEMP:  31; 6HR MAX TEMP:  35;                                

PINEDALE       CLEAR     32  28  86 NW12      30.26S WCI  23          
DUBOIS         FAIR      32  21  64 NW5       30.25R WCI  27          
LANDER         CLEAR     37  24  59 W7        30.24R WCI  32          
6HR MIN TEMP:  34; 6HR MAX TEMP:  46;                                

RIVERTON       CLEAR     36  22  56 NE12      30.23R WCI  28          
6HR MIN TEMP:  31; 6HR MAX TEMP:  45;                                

CASPER         CLOUDY    33  30  88 NW5       30.19R WCI  29          
6HR MIN TEMP:  30; 6HR MAX TEMP:  36;                                

DOUGLAS        CLOUDY    37  36  96 NW13      30.16S WCI  29          
6HR MIN TEMP:  35; 6HR MAX TEMP:  40; 6HR PCP:  0.01;                


$$
WYZ021-027>030-104>119-181300-
...SOUTHERN WYOMING...
  
CITY           SKY/WX    TMP DP  RH WIND       PRES   REMARKS
EVANSTON       CLEAR     31  26  82 SW10      30.35R WCI  22          
6HR MIN TEMP:  30; 6HR MAX TEMP:  36;                                

KEMMERER       CLEAR     32  30  93 W22       30.30S WCI  19          
FORT BRIDGER   NOT AVBL                                               
ROCK SPRINGS   CLEAR     35  29  78 W18       30.26R WCI  24          
6HR MIN TEMP:  35; 6HR MAX TEMP:  38;                                

DIXON          CLOUDY    39  29  68 S7        30.28R WCI  34          
RAWLINS        CLEAR     35  30  82 W20G25    30.21R WCI  24          
6HR MIN TEMP:  34; 6HR MAX TEMP:  39;                                

SARATOGA       FAIR      34  30  86 W16G22    30.20R WCI  23          
LARAMIE        CLOUDY    31  26  82 NW10      30.14R WCI  22          
6HR MIN TEMP:  26; 6HR MAX TEMP:  33;                                

CHEYENNE       CLOUDY    35  33  92 N6        30.11R WCI  30          
6HR MIN TEMP:  34; 6HR MAX TEMP:  38;                                

TORRINGTON     LGT RAIN  45  32  60 N18G31    30.10R                  
6HR MIN TEMP:  39; 6HR MAX TEMP:  45; 6HR PCP: TRACE;                

PINE BLUFFS    MOCLDY    36  34  93 NW14      30.12R WCI  27          

$$